Location: Griffith Observatory
(34.1130°N, 118.3015°W)
Time: 11:15:27
(UTC-07:00)

Hubble Space Telescope - Visible Passes

Search period start: 07 October 2024 00:00
Search period end: 17 October 2024 00:00
Orbit: 504 x 508 km, 28.5° (Epoch: 06 October)

Date Brightness Start Highest point End Pass type
(mag) Time Alt. Az. Time Alt. Az. Time Alt. Az.
07 Oct 2.8 05:21:31 14° S 05:21:31 14° S 05:23:06 10° SSE visible
13 Oct 3.3 20:08:47 10° S 20:09:00 11° S 20:09:00 11° S visible
14 Oct 2.7 19:46:58 10° SSW 19:48:53 15° SSE 19:48:53 15° SSE visible
15 Oct 2.6 19:25:10 10° SSW 19:27:41 16° SSE 19:28:41 15° SE visible
16 Oct 2.6 19:03:22 10° SSW 19:06:04 18° SSE 19:08:24 11° ESE visible
16 Oct 3.5 20:42:28 10° WSW 20:43:03 13° SW 20:43:03 13° SW visible
